This is the latest recevied weather packets stored in our database for station/object HA2SKA-1. If no packets are shown the sender has not sent any weather packets the latest 10 day(s).
| Time | Temp. | Humidity | Pressure | Rain* | Wind** | Luminosity | Snow |
|---|---|---|---|---|---|---|---|
| 1788037505 | 22.22° C | 64% | 1018.6 hPa | - | - | - | - |
| 1788036605 | 23.89° C | 59% | 1018.6 hPa | - | - | - | - |
| 1788035705 | 23.89° C | 58% | 1018.7 hPa | - | - | - | - |
| 1788034804 | 25° C | 52% | 1018.7 hPa | - | - | - | - |
| 1788033904 | 25° C | 52% | 1018.6 hPa | - | - | - | - |
| 1788033004 | 25° C | 52% | 1018.6 hPa | - | - | - | - |
| 1788032104 | 23.89° C | 59% | 1018.5 hPa | - | - | - | - |
| 1788031204 | 25° C | 54% | 1018.6 hPa | - | - | - | - |
| 1788030304 | 25° C | 53% | 1018.5 hPa | - | - | - | - |
| 1788029404 | 23.89° C | 58% | 1018.3 hPa | - | - | - | - |
| 1788028504 | 25° C | 53% | 1018.3 hPa | - | - | - | - |
| 1788027604 | 26.11° C | 50% | 1018.2 hPa | - | - | - | - |
| 1788026704 | 25.56° C | 51% | 1017.9 hPa | - | - | - | - |
| 1788025804 | 25.56° C | 50% | 1017.8 hPa | - | - | - | - |
| 1788024903 | 26.11° C | 47% | 1017.6 hPa | - | - | - | - |
| 1788024003 | 27.78° C | 42% | 1017.7 hPa | - | - | - | - |
| 1788023103 | 28.33° C | 40% | 1017.7 hPa | - | - | - | - |
| 1788022203 | 28.89° C | 40% | 1017.8 hPa | - | - | - | - |
| 1788021303 | 28.89° C | 39% | 1017.8 hPa | - | - | - | - |
| 1788020403 | 28.89° C | 39% | 1017.9 hPa | - | - | - | - |
| 1788019503 | 30° C | 35% | 1017.8 hPa | - | - | - | - |
| 1788018603 | 29.44° C | 35% | 1018 hPa | - | - | - | - |
| 1788017703 | 30.56° C | 36% | 1017.9 hPa | - | - | - | - |
| 1788016802 | 30° C | 36% | 1017.9 hPa | - | - | - | - |
| 1788015909 | 30.56° C | 37% | 1017.9 hPa | - | - | - | - |
* Rain since midnight (hover to see other rain measurements)
** Current wind speed in m/s (hover to see current wind gust speed)